Location: El Centro
(32.7920°N, 115.5620°W)
Time: 11:43:19
(UTC-07:00)

Hamsat - Visible Passes

Search period start: 27 July 2017 00:00
Search period end: 06 August 2017 00:00
Orbit: 585 x 618 km, 97.7° (Epoch: 26 July)

Date Brightness Start Highest point End Pass type
(mag) Time Alt. Az. Time Alt. Az. Time Alt. Az.
27 Jul ? 03:37:49 10° ENE 03:40:02 14° E 03:42:16 10° SE visible
27 Jul ? 05:11:54 10° N 05:15:54 38° WNW 05:19:53 10° SW visible
28 Jul ? 03:48:43 10° NE 03:51:49 19° E 03:54:54 10° SE visible
28 Jul ? 05:23:52 10° NNW 05:27:31 28° WNW 05:31:11 10° SW visible
29 Jul ? 03:59:56 10° NE 04:03:35 26° E 04:07:12 10° SSE visible
30 Jul ? 04:11:20 10° NNE 04:15:20 36° E 04:19:18 10° SSE visible
31 Jul ? 04:22:50 10° NNE 04:27:03 51° E 04:31:15 10° S visible
01 Aug ? 04:34:27 10° NNE 04:38:46 73° ESE 04:43:01 10° S visible
02 Aug ? 04:46:07 10° N 04:50:27 80° WNW 04:54:46 10° SSW visible
03 Aug ? 04:57:53 10° N 05:02:08 56° WNW 05:06:20 10° SSW visible
04 Aug ? 03:35:48 10° ENE 03:37:54 13° E 03:40:00 10° ESE visible
04 Aug ? 05:09:44 10° N 05:13:46 40° WNW 05:17:48 10° SW visible
05 Aug ? 03:46:39 10° NE 03:49:41 18° E 03:52:41 10° SE visible
05 Aug ? 05:21:40 10° NNW 05:25:24 29° WNW 05:29:08 10° SW visible
